Location: Kosice
(0.0000°N, 21.2500°E)
Time: 19:06:17
(UTC+01:00)

Cosmos 1408 - Pass Details

Date: 24 January 2021
Orbit: 469 x 491 km, 82.6° (Epoch: 01 March)

Event Time Altitude Azimuth Distance (km) Brightness Sun altitude
Rises 19:09:18 0° 188° (S) 2,541 6.6 -19.4°
Reaches altitude 10° 19:11:25 10° 191° (S) 1,655 5.6 -19.9°
Maximum altitude 19:15:01 66° 274° (W) 522 2.8 -20.7°
Enters shadow 19:16:27 33° 346° (NNW) 817 3.6 -21.0°
